GW3437 Weather Reports


Display with metric or nautical units.
time (UTC)temp
F
wind
direction
speed
MPH
gust
MPH
rain 1hr
in
rain 24hr
in
rain mn
in
humidity
%
barometer
mb
20260508163933 76 233 6.0 17.0 0.00 0.00 0.00 47 1012.4
20260508163431 75 259 9.0 13.0 0.00 0.00 0.00 48 1012.4
20260508162926 75 242 8.0 13.0 0.00 0.00 0.00 48 1012.4
20260508162424 75 174 7.0 9.0 0.00 0.00 0.00 48 1012.6
20260508161921 75 189 9.0 14.0 0.00 0.00 0.00 48 1012.7
20260508161418 75 171 6.0 14.0 0.00 0.00 0.00 48 1012.8
20260508160915 73 224 7.0 11.0 0.00 0.00 0.00 48 1012.8
20260508160414 73 230 6.0 10.0 0.00 0.00 0.00 47 1012.9
20260508155909 74 191 6.0 8.0 0.00 0.00 0.00 47 1012.7
20260508155407 73 253 7.0 11.0 0.00 0.00 0.00 47 1012.9
20260508154903 73 247 7.0 11.0 0.00 0.00 0.00 47 1013.0
20260508154402 72 224 6.0 15.0 0.00 0.00 0.00 47 1012.8
20260508153858 73 149 7.0 14.0 0.00 0.00 0.00 48 1013.1
20260508153355 72 187 6.0 13.0 0.00 0.00 0.00 48 1013.2
20260508152851 72 165 8.0 14.0 0.00 0.00 0.00 48 1013.3
20260508152347 72 143 11.0 15.0 0.00 0.00 0.00 49 1013.3
20260508151844 72 197 7.0 15.0 0.00 0.00 0.00 50 1013.4
20260508151341 72 181 7.0 10.0 0.00 0.00 0.00 50 1013.4
20260508150837 71 213 6.0 8.0 0.00 0.00 0.00 50 1013.4
20260508150334 71 196 7.0 13.0 0.00 0.00 0.00 51 1013.6
20260508145830 71 260 4.0 10.0 0.00 0.00 0.00 52 1013.6
20260508145326 70 207 6.0 14.0 0.00 0.00 0.00 53 1013.4
20260508144823 70 180 5.0 15.0 0.00 0.00 0.00 54 1013.5
20260508144321 70 219 6.0 9.0 0.00 0.00 0.00 55 1013.6
20260508143819 70 235 6.0 14.0 0.00 0.00 0.00 54 1013.8
20260508143315 69 162 3.0 9.0 0.00 0.00 0.00 55 1013.7
20260508142812 68 180 7.0 13.0 0.00 0.00 0.00 56 1013.7
20260508142309 68 185 6.0 9.0 0.00 0.00 0.00 56 1013.6
20260508141805 68 202 5.0 9.0 0.00 0.00 0.00 56 1013.6
20260508141303 68 209 9.0 11.0 0.00 0.00 0.00 56 1013.6
20260508140800 67 176 9.0 11.0 0.00 0.00 0.00 57 1013.6
20260508140257 66 208 7.0 11.0 0.00 0.00 0.00 58 1013.9
20260508135752 66 183 4.0 11.0 0.00 0.00 0.00 59 1013.7
20260508135249 66 229 5.0 9.0 0.00 0.00 0.00 59 1014.0
20260508134744 66 186 9.0 11.0 0.00 0.00 0.00 59 1014.0
20260508134242 65 210 4.0 10.0 0.00 0.00 0.00 61 1014.0
20260508133738 65 196 6.0 10.0 0.00 0.00 0.00 62 1014.1
20260508133236 64 182 6.0 10.0 0.00 0.00 0.00 63 1013.9
20260508132734 64 175 9.0 14.0 0.00 0.00 0.00 63 1013.8
20260508132231 64 241 6.0 11.0 0.00 0.00 0.00 63 1013.9
20260508131727 64 149 6.0 9.0 0.00 0.00 0.00 63 1013.9
20260508131223 64 189 4.0 8.0 0.00 0.00 0.00 64 1014.1
20260508130720 63 189 3.0 11.0 0.00 0.00 0.00 65 1014.1
20260508130217 63 175 3.0 4.0 0.00 0.00 0.00 66 1014.0
20260508125713 62 277 3.0 10.0 0.00 0.00 0.00 66 1014.1
20260508125209 62 229 7.0 9.0 0.00 0.00 0.00 67 1014.0
20260508124708 62 212 5.0 9.0 0.00 0.00 0.00 68 1014.1
20260508124204 61 234 3.0 6.0 0.00 0.00 0.00 69 1014.1
20260508123703 61 164 2.0 7.0 0.00 0.00 0.00 70 1014.0
20260508123200 61 183 4.0 8.0 0.00 0.00 0.00 70 1013.9
20260508122656 60 177 2.0 4.0 0.00 0.00 0.00 71 1013.9
20260508122153 60 194 3.0 6.0 0.00 0.00 0.00 72 1013.9
20260508121651 60 225 4.0 6.0 0.00 0.00 0.00 72 1014.0
20260508121149 60 186 3.0 10.0 0.00 0.00 0.00 72 1013.8
20260508120646 59 191 5.0 9.0 0.00 0.00 0.00 72 1013.7
20260508120144 60 194 3.0 8.0 0.00 0.00 0.00 73 1013.9
20260508115642 59 205 3.0 4.0 0.00 0.00 0.00 73 1013.7
20260508115138 59 175 3.0 4.0 0.00 0.00 0.00 73 1013.8
20260508114635 59 168 2.0 3.0 0.00 0.00 0.00 73 1013.9
20260508114131 59 262 4.0 4.0 0.00 0.00 0.00 73 1013.7
20260508113629 59 214 3.0 4.0 0.00 0.00 0.00 74 1013.8
20260508113127 59 221 2.0 3.0 0.00 0.00 0.00 74 1013.7
20260508112623 59 163 2.0 6.0 0.00 0.00 0.00 74 1013.8
20260508112120 59 191 3.0 6.0 0.00 0.00 0.00 74 1013.7
20260508111617 59 154 2.0 6.0 0.00 0.00 0.00 73 1013.7
20260508111114 59 229 3.0 7.0 0.00 0.00 0.00 73 1013.6
20260508110612 59 209 5.0 10.0 0.00 0.00 0.00 73 1013.6
20260508110107 60 240 5.0 6.0 0.00 0.00 0.00 72 1013.9
20260508105602 60 174 3.0 7.0 0.00 0.00 0.00 72 1013.7
20260508105100 60 173 3.0 6.0 0.00 0.00 0.00 72 1013.7
20260508104557 60 182 2.0 7.0 0.00 0.00 0.00 71 1013.8
20260508104054 60 203 3.0 8.0 0.00 0.00 0.00 71 1013.7
20260508103551 60 229 3.0 6.0 0.00 0.00 0.00 71 1013.8
20260508103048 60 228 3.0 6.0 0.00 0.00 0.00 71 1013.7
20260508102546 60 186 4.0 6.0 0.00 0.00 0.00 70 1013.6
20260508102043 60 170 3.0 4.0 0.00 0.00 0.00 71 1013.4
20260508101541 60 181 4.0 7.0 0.00 0.00 0.00 70 1013.3
20260508101037 61 188 3.0 6.0 0.00 0.00 0.00 70 1013.4
20260508100536 61 301 4.0 6.0 0.00 0.00 0.00 70 1013.5
20260508100032 61 161 4.0 6.0 0.00 0.00 0.00 70 1013.4
20260508095529 61 192 5.0 8.0 0.00 0.00 0.00 70 1013.2
20260508095026 61 225 6.0 10.0 0.00 0.00 0.00 70 1013.3
20260508094523 61 193 4.0 6.0 0.00 0.00 0.00 70 1013.1
20260508094020 61 183 2.0 9.0 0.00 0.00 0.00 69 1013.2
20260508093517 61 203 6.0 7.0 0.00 0.00 0.00 69 1013.2
20260508093015 61 174 2.0 6.0 0.00 0.00 0.00 69 1013.3
20260508092512 61 187 2.0 4.0 0.00 0.00 0.00 69 1013.2
20260508092011 61 244 3.0 8.0 0.00 0.00 0.00 70 1013.3
20260508091508 61 182 4.0 4.0 0.00 0.00 0.00 70 1013.2
20260508091004 61 190 1.0 4.0 0.00 0.00 0.00 69 1013.3
20260508090503 61 205 2.0 4.0 0.00 0.00 0.00 69 1013.1
20260508085958 61 184 5.0 8.0 0.00 0.00 0.00 69 1013.2
20260508085455 61 163 7.0 8.0 0.00 0.00 0.00 68 1013.2
20260508084952 61 189 4.0 6.0 0.00 0.00 0.00 68 1013.2
20260508084449 61 200 1.0 7.0 0.00 0.00 0.00 68 1013.2
20260508083942 61 148 4.0 7.0 0.00 0.00 0.00 68 1013.3
20260508083439 62 214 4.0 9.0 0.00 0.00 0.00 67 1013.1
20260508082938 61 179 2.0 6.0 0.00 0.00 0.00 67 1013.1
20260508082435 61 200 6.0 8.0 0.00 0.00 0.00 67 1013.1
20260508081933 61 216 3.0 7.0 0.00 0.00 0.00 66 1013.2
20260508081430 61 196 4.0 4.0 0.00 0.00 0.00 66 1013.4
20260508080926 61 206 3.0 6.0 0.00 0.00 0.00 66 1013.4
20260508080425 61 189 2.0 4.0 0.00 0.00 0.00 66 1013.5
20260508075921 61 202 4.0 8.0 0.00 0.00 0.00 65 1013.5
20260508075418 61 175 3.0 9.0 0.00 0.00 0.00 65 1013.8
20260508074916 61 211 3.0 7.0 0.00 0.00 0.00 65 1013.6
20260508074413 61 247 3.0 6.0 0.00 0.00 0.00 65 1013.7
20260508073910 61 204 2.0 7.0 0.00 0.00 0.00 65 1013.7
20260508073408 61 209 3.0 4.0 0.00 0.00 0.00 64 1013.7
20260508072904 61 177 4.0 6.0 0.00 0.00 0.00 64 1013.7
20260508072400 62 201 5.0 8.0 0.00 0.00 0.00 63 1013.9
20260508071857 62 187 4.0 7.0 0.00 0.00 0.00 63 1014.1
20260508071356 62 182 4.0 8.0 0.00 0.00 0.00 63 1014.0
20260508070853 62 196 7.0 10.0 0.00 0.00 0.00 62 1014.1
20260508070351 62 178 4.0 7.0 0.00 0.00 0.00 62 1014.1
20260508065849 63 210 6.0 7.0 0.00 0.00 0.00 61 1014.3
20260508065347 63 217 5.0 11.0 0.00 0.00 0.00 60 1014.3
20260508064844 63 187 4.0 8.0 0.00 0.00 0.00 59 1014.6
20260508064341 63 190 4.0 7.0 0.00 0.00 0.00 58 1014.4
20260508063839 63 231 4.0 8.0 0.00 0.00 0.00 56 1014.7
20260508063337 64 220 3.0 6.0 0.00 0.00 0.00 56 1014.6
20260508062834 64 206 3.0 9.0 0.00 0.00 0.00 55 1014.7
20260508062331 64 151 4.0 4.0 0.00 0.00 0.00 53 1014.7
20260508061828 64 187 4.0 13.0 0.00 0.00 0.00 52 1014.7
20260508061326 64 187 7.0 10.0 0.00 0.00 0.00 51 1014.7
20260508060822 64 194 6.0 8.0 0.00 0.00 0.00 50 1014.7
20260508060320 65 186 6.0 8.0 0.00 0.00 0.00 49 1014.9
20260508055815 65 229 5.0 9.0 0.00 0.00 0.00 49 1014.8
20260508055313 65 201 3.0 8.0 0.00 0.00 0.00 49 1014.7
20260508054809 65 187 4.0 7.0 0.00 0.00 0.00 48 1014.6
20260508054307 65 203 4.0 8.0 0.00 0.00 0.00 48 1014.4
20260508053803 65 155 3.0 9.0 0.00 0.00 0.00 48 1014.3
20260508053301 65 195 5.0 8.0 0.00 0.00 0.00 48 1014.6
20260508052758 65 179 4.0 8.0 0.00 0.00 0.00 48 1014.6
20260508052255 64 217 3.0 8.0 0.00 0.00 0.00 49 1014.6
20260508051751 64 208 4.0 6.0 0.00 0.00 0.00 49 1014.6
20260508051246 64 170 2.0 8.0 0.00 0.00 0.00 50 1014.7
20260508050743 63 145 1.0 6.0 0.00 0.00 0.00 50 1014.7
20260508050240 63 140 1.0 4.0 0.00 0.00 0.00 50 1014.7
20260508045736 63 177 2.0 2.0 0.00 0.00 0.00 50 1014.7
20260508045234 64 170 0.0 1.0 0.00 0.00 0.00 50 1014.7
20260508044731 64 170 3.0 4.0 0.00 0.00 0.00 49 1014.6
20260508044228 64 174 1.0 3.0 0.00 0.00 0.00 49 1014.8
20260508043724 63 182 2.0 3.0 0.00 0.00 0.00 49 1014.8
20260508043222 63 139 0.0 3.0 0.00 0.00 0.00 50 1014.7
20260508042718 63 150 1.0 2.0 0.00 0.00 0.00 50 1014.9
20260508042216 63 151 1.0 3.0 0.00 0.00 0.00 50 1015.0
20260508041712 63 169 0.0 2.0 0.00 0.00 0.00 50 1015.0
20260508041209 62 170 0.0 2.0 0.00 0.00 0.00 51 1014.8
20260508040705 62 169 1.0 2.0 0.00 0.00 0.00 51 1015.1
20260508040203 62 155 0.0 1.0 0.00 0.00 0.00 51 1015.1
20260508035700 62 110 0.0 1.0 0.00 0.00 0.00 50 1015.2
20260508035157 62 118 0.0 1.0 0.00 0.00 0.00 49 1015.0
20260508034653 63 102 0.0 1.0 0.00 0.00 0.00 48 1014.9
20260508034151 63 152 0.0 1.0 0.00 0.00 0.00 47 1015.2
20260508033648 63 137 0.0 1.0 0.00 0.00 0.00 46 1015.0
20260508033146 64 142 0.0 1.0 0.00 0.00 0.00 46 1014.9
20260508032643 64 175 0.0 0.0 0.00 0.00 0.00 45 1015.0
20260508032140 64 147 0.0 2.0 0.00 0.00 0.00 44 1015.0
20260508031637 65 162 0.0 1.0 0.00 0.00 0.00 44 1014.9
20260508031133 64 155 0.0 1.0 0.00 0.00 0.00 44 1015.1
20260508030630 65 154 0.0 0.0 0.00 0.00 0.00 43 1014.9
20260508030127 65 166 1.0 1.0 0.00 0.00 0.00 42 1014.9
20260508025624 65 157 0.0 1.0 0.00 0.00 0.00 42 1014.9
20260508025121 65 166 0.0 2.0 0.00 0.00 0.00 42 1014.9
20260508024617 64 153 0.0 1.0 0.00 0.00 0.00 43 1014.9
20260508024114 65 153 0.0 0.0 0.00 0.00 0.00 41 1014.3
20260508023610 66 149 0.0 0.0 0.00 0.00 0.00 40 1014.4
20260508023108 67 149 0.0 1.0 0.00 0.00 0.00 40 1014.4
20260508022603 67 161 0.0 1.0 0.00 0.00 0.00 39 1014.4
20260508022101 68 154 0.0 3.0 0.00 0.00 0.00 39 1014.4
20260508021556 68 145 0.0 3.0 0.00 0.00 0.00 39 1014.6
20260508021052 68 235 0.0 1.0 0.00 0.00 0.00 38 1014.6
20260508020550 69 185 1.0 1.0 0.00 0.00 0.00 37 1014.8
20260508020048 70 138 0.0 2.0 0.00 0.00 0.00 37 1014.7
20260508015545 70 229 2.0 6.0 0.00 0.00 0.00 36 1014.6
20260508015042 69 188 3.0 3.0 0.00 0.00 0.00 37 1014.6
20260508014538 69 136 1.0 1.0 0.00 0.00 0.00 37 1014.4
20260508014034 70 146 0.0 2.0 0.00 0.00 0.00 37 1014.3
20260508013530 71 182 2.0 3.0 0.00 0.00 0.00 35 1014.2
20260508013028 71 149 1.0 4.0 0.00 0.00 0.00 35 1014.3
20260508012525 72 128 1.0 3.0 0.00 0.00 0.00 34 1014.4
20260508012022 72 150 2.0 6.0 0.00 0.00 0.00 34 1014.2
20260508011521 72 165 3.0 4.0 0.00 0.00 0.00 33 1014.3
20260508011018 73 177 1.0 6.0 0.00 0.00 0.00 34 1014.3
20260508010514 73 188 2.0 3.0 0.00 0.00 0.00 34 1014.2
20260508010012 73 171 1.0 3.0 0.00 0.00 0.00 34 1014.0
20260508005508 73 204 1.0 2.0 0.00 0.00 0.00 33 1014.2
20260508005005 74 158 2.0 4.0 0.00 0.00 0.00 33 1014.0
20260508004501 74 196 0.0 4.0 0.00 0.00 0.00 32 1013.9
20260508003958 75 193 2.0 6.0 0.00 0.00 0.00 31 1013.9
20260508003454 75 100 1.0 6.0 0.00 0.00 0.00 29 1013.8
20260508002952 75 184 2.0 6.0 0.00 0.00 0.00 30 1013.8
20260508002448 75 186 3.0 4.0 0.00 0.00 0.00 29 1013.9
20260508001944 76 170 6.0 8.0 0.00 0.00 0.00 28 1013.7
20260508001441 76 175 2.0 6.0 0.00 0.00 0.00 28 1013.9
20260508000937 76 200 3.0 4.0 0.00 0.00 0.00 28 1013.9
20260508000434 76 176 4.0 6.0 0.00 0.00 0.00 29 1013.9
20260507235930 76 164 2.0 8.0 0.00 0.00 0.00 29 1014.0
20260507235427 77 180 2.0 3.0 0.00 0.00 0.00 28 1013.9
20260507234924 77 220 3.0 7.0 0.00 0.00 0.00 28 1014.1
20260507234421 77 178 3.0 8.0 0.00 0.00 0.00 28 1013.8
20260507233917 77 221 2.0 4.0 0.00 0.00 0.00 28 1014.1
20260507233414 77 221 2.0 4.0 0.00 0.00 0.00 28 1014.1
20260507232913 77 179 2.0 7.0 0.00 0.00 0.00 28 1014.1
20260507232409 77 205 1.0 6.0 0.00 0.00 0.00 28 1014.2
20260507231906 77 165 3.0 6.0 0.00 0.00 0.00 28 1014.2
20260507230611 77 189 2.0 7.0 0.00 0.00 0.00 29 1014.4
20260507230108 77 189 2.0 7.0 0.00 0.00 0.00 29 1014.4
20260507225603 77 189 2.0 7.0 0.00 0.00 0.00 29 1014.4
20260507225100 77 154 8.0 10.0 0.00 0.00 0.00 29 1014.6
20260507224555 77 225 3.0 6.0 0.00 0.00 0.00 29 1014.4
20260507224052 78 187 7.0 9.0 0.00 0.00 0.00 28 1014.7
20260507223548 78 20 2.0 4.0 0.00 0.00 0.00 27 1014.7
20260507223045 80 187 5.0 7.0 0.00 0.00 0.00 26 1014.6
20260507222543 78 203 0.0 2.0 0.00 0.00 0.00 26 1014.7
20260507222039 78 260 3.0 4.0 0.00 0.00 0.00 27 1014.6
20260507221535 79 187 1.0 4.0 0.00 0.00 0.00 27 1014.6
20260507221032 78 205 1.0 4.0 0.00 0.00 0.00 27 1014.9
20260507220529 78 101 2.0 7.0 0.00 0.00 0.00 27 1014.9
20260507220027 78 203 2.0 8.0 0.00 0.00 0.00 26 1014.8
20260507215523 78 298 2.0 3.0 0.00 0.00 0.00 26 1015.1
20260507215021 78 215 3.0 6.0 0.00 0.00 0.00 26 1014.9
20260507214518 78 195 0.0 6.0 0.00 0.00 0.00 26 1014.8
20260507214014 78 179 3.0 4.0 0.00 0.00 0.00 26 1015.0
20260507213510 78 172 2.0 2.0 0.00 0.00 0.00 26 1015.0
20260507213007 78 195 3.0 6.0 0.00 0.00 0.00 26 1015.0
20260507212503 79 281 2.0 6.0 0.00 0.00 0.00 26 1015.1
20260507212000 79 352 3.0 3.0 0.00 0.00 0.00 25 1015.2
20260507211456 78 257 5.0 7.0 0.00 0.00 0.00 26 1015.2
20260507210953 79 30 2.0 6.0 0.00 0.00 0.00 25 1015.6
20260507210450 77 198 4.0 6.0 0.00 0.00 0.00 27 1015.5
20260507205947 77 187 2.0 7.0 0.00 0.00 0.00 27 1015.5
20260507205444 77 55 2.0 3.0 0.00 0.00 0.00 28 1015.5
20260507204940 77 152 2.0 7.0 0.00 0.00 0.00 29 1015.6
20260507204436 76 275 4.0 8.0 0.00 0.00 0.00 30 1015.8
20260507203934 77 52 2.0 7.0 0.00 0.00 0.00 31 1015.9
20260507203432 76 228 2.0 3.0 0.00 0.00 0.00 30 1016.0
20260507202928 75 171 2.0 6.0 0.00 0.00 0.00 31 1016.1
20260507202425 76 268 4.0 9.0 0.00 0.00 0.00 30 1016.1
20260507201920 75 244 2.0 4.0 0.00 0.00 0.00 30 1016.3
20260507201416 75 251 5.0 8.0 0.00 0.00 0.00 29 1016.6
20260507200913 76 229 6.0 10.0 0.00 0.00 0.00 29 1016.5
20260507200408 77 41 1.0 6.0 0.00 0.00 0.00 29 1016.6
20260507195904 76 177 0.0 4.0 0.00 0.00 0.00 30 1016.7
20260507195402 76 243 2.0 3.0 0.00 0.00 0.00 28 1016.7
20260507194859 75 223 2.0 6.0 0.00 0.00 0.00 31 1016.8
20260507194355 75 220 6.0 9.0 0.00 0.00 0.00 30 1017.1
20260507193852 74 236 2.0 3.0 0.00 0.00 0.00 30 1017.1
20260507193349 74 244 6.0 8.0 0.00 0.00 0.00 30 1017.1
20260507192845 74 260 5.0 8.0 0.00 0.00 0.00 30 1017.3
20260507192342 75 241 4.0 8.0 0.00 0.00 0.00 30 1017.4
20260507191838 75 181 3.0 3.0 0.00 0.00 0.00 32 1017.4
20260507191334 74 243 2.0 11.0 0.00 0.00 0.00 31 1017.5
20260507190832 74 205 4.0 11.0 0.00 0.00 0.00 32 1017.5
20260507190330 73 183 7.0 8.0 0.00 0.00 0.00 34 1017.5
20260507185828 73 252 4.0 8.0 0.00 0.00 0.00 33 1017.8
20260507185325 73 202 6.0 16.0 0.00 0.00 0.00 34 1017.4
20260507184822 73 292 4.0 7.0 0.00 0.00 0.00 34 1018.0
20260507184320 72 344 1.0 7.0 0.00 0.00 0.00 35 1018.1
20260507183816 71 234 7.0 8.0 0.00 0.00 0.00 35 1018.1
20260507183314 71 226 5.0 11.0 0.00 0.00 0.00 36 1018.0
20260507182811 72 221 4.0 4.0 0.00 0.00 0.00 34 1018.2
20260507182307 72 233 2.0 10.0 0.00 0.00 0.00 34 1018.3
20260507181803 71 225 3.0 8.0 0.00 0.00 0.00 36 1018.3
20260507181259 72 195 3.0 4.0 0.00 0.00 0.00 35 1018.4
20260507180756 71 253 3.0 8.0 0.00 0.00 0.00 36 1018.3
20260507180253 71 232 4.0 13.0 0.00 0.00 0.00 38 1018.4
20260507175748 70 199 3.0 7.0 0.00 0.00 0.00 38 1018.6
20260507175246 69 290 2.0 7.0 0.00 0.00 0.00 39 1018.7
20260507174743 69 205 4.0 10.0 0.00 0.00 0.00 39 1018.9
20260507174241 69 200 2.0 7.0 0.00 0.00 0.00 40 1018.9
20260507173738 69 245 1.0 4.0 0.00 0.00 0.00 42 1019.1
20260507173235 68 207 1.0 2.0 0.00 0.00 0.00 41 1019.0
20260507172731 68 185 1.0 4.0 0.00 0.00 0.00 40 1019.1
20260507172223 70 230 6.0 9.0 0.00 0.00 0.00 39 1019.1
20260507171722 69 182 3.0 4.0 0.00 0.00 0.00 40 1019.6
20260507171220 67 260 3.0 9.0 0.00 0.00 0.00 41 1019.5
20260507170717 67 194 4.0 9.0 0.00 0.00 0.00 42 1019.5
20260507170214 67 184 2.0 8.0 0.00 0.00 0.00 40 1019.6
20260507165709 67 248 4.0 8.0 0.00 0.00 0.00 40 1019.8
20260507165206 66 195 3.0 7.0 0.00 0.00 0.00 41 1019.9
20260507164702 66 210 6.0 8.0 0.00 0.00 0.00 41 1020.0
20260507164200 66 246 4.0 6.0 0.00 0.00 0.00 41 1019.9